Year,Month,Day,Hour,Minute,Value (Times are PST for temperature in C)
2011,08,14,00,00,15.30
2011,08,14,00,01,15.30
2011,08,14,00,02,15.20
2011,08,14,00,03,15.20
2011,08,14,00,04,15.20
2011,08,14,00,05,15.20
2011,08,14,00,06,15.20
2011,08,14,00,07,15.20
2011,08,14,00,08,15.20
2011,08,14,00,09,15.20
2011,08,14,00,10,15.20
2011,08,14,00,11,15.20
2011,08,14,00,12,15.20
2011,08,14,00,13,15.20
2011,08,14,00,14,15.20
2011,08,14,00,15,15.20
2011,08,14,00,16,15.20
2011,08,14,00,17,15.20
2011,08,14,00,18,15.20
2011,08,14,00,19,15.20
2011,08,14,00,20,15.20
2011,08,14,00,21,15.20
2011,08,14,00,22,15.20
2011,08,14,00,23,15.20
2011,08,14,00,24,15.20
2011,08,14,00,25,15.20
2011,08,14,00,26,15.20
2011,08,14,00,27,15.20
2011,08,14,00,28,15.20
2011,08,14,00,29,15.20
2011,08,14,00,30,15.20
2011,08,14,00,31,15.20
2011,08,14,00,32,15.20
2011,08,14,00,33,15.20
2011,08,14,00,34,15.20
2011,08,14,00,35,15.10
2011,08,14,00,36,15.10
2011,08,14,00,37,15.10
2011,08,14,00,38,15.10
2011,08,14,00,39,15.10
2011,08,14,00,40,15.10
2011,08,14,00,41,15.10
2011,08,14,00,42,15.10
2011,08,14,00,43,15.10
2011,08,14,00,44,15.10
2011,08,14,00,45,15.20
2011,08,14,00,46,15.20
2011,08,14,00,47,15.20
2011,08,14,00,48,15.20
2011,08,14,00,49,15.10
2011,08,14,00,50,15.10
2011,08,14,00,51,15.10
2011,08,14,00,52,15.00
2011,08,14,00,53,15.00
2011,08,14,00,54,15.00
2011,08,14,00,55,15.00
2011,08,14,00,56,15.00
2011,08,14,00,57,15.00
2011,08,14,00,58,15.00
2011,08,14,00,59,15.00
2011,08,14,01,00,15.00
2011,08,14,01,01,15.00
2011,08,14,01,02,15.00
2011,08,14,01,03,15.00
2011,08,14,01,04,15.00
2011,08,14,01,05,15.10
2011,08,14,01,06,15.10
2011,08,14,01,07,15.10
2011,08,14,01,08,15.10
2011,08,14,01,09,15.10
2011,08,14,01,10,15.10
2011,08,14,01,11,15.10
2011,08,14,01,12,15.10
2011,08,14,01,13,15.10
2011,08,14,01,14,15.10
2011,08,14,01,15,15.10
2011,08,14,01,16,15.10
2011,08,14,01,17,15.20
2011,08,14,01,18,15.20
2011,08,14,01,19,15.20
2011,08,14,01,20,15.20
2011,08,14,01,21,15.20
2011,08,14,01,22,15.20
2011,08,14,01,23,15.20
2011,08,14,01,24,15.20
2011,08,14,01,25,15.20
2011,08,14,01,26,15.20
2011,08,14,01,27,15.20
2011,08,14,01,28,15.20
2011,08,14,01,29,15.20
2011,08,14,01,30,15.20
2011,08,14,01,31,15.20
2011,08,14,01,32,15.20
2011,08,14,01,33,15.20
2011,08,14,01,34,15.20
2011,08,14,01,35,15.20
2011,08,14,01,36,15.20
2011,08,14,01,37,15.20
2011,08,14,01,38,15.20
2011,08,14,01,39,15.20
2011,08,14,01,40,15.20
2011,08,14,01,41,15.20
2011,08,14,01,42,15.20
2011,08,14,01,43,15.20
2011,08,14,01,44,15.20
2011,08,14,01,45,15.20
2011,08,14,01,46,15.20
2011,08,14,01,47,15.10
2011,08,14,01,48,15.10
2011,08,14,01,49,15.10
2011,08,14,01,50,15.00
2011,08,14,01,51,15.00
2011,08,14,01,52,15.00
2011,08,14,01,53,15.00
2011,08,14,01,54,15.00
2011,08,14,01,55,15.00
2011,08,14,01,56,15.00
2011,08,14,01,57,15.00
2011,08,14,01,58,15.00
2011,08,14,01,59,15.00
2011,08,14,02,00,15.00
2011,08,14,02,01,15.00
2011,08,14,02,02,15.00
2011,08,14,02,03,15.00
2011,08,14,02,04,15.00
2011,08,14,02,05,15.00
2011,08,14,02,06,15.00
2011,08,14,02,07,15.00
2011,08,14,02,08,14.90
2011,08,14,02,09,14.90
2011,08,14,02,10,14.80
2011,08,14,02,11,14.80
2011,08,14,02,12,14.80
2011,08,14,02,13,14.80
2011,08,14,02,14,14.70
2011,08,14,02,15,14.70
2011,08,14,02,16,14.60
2011,08,14,02,17,14.60
2011,08,14,02,18,14.60
2011,08,14,02,19,14.60
2011,08,14,02,20,14.60
2011,08,14,02,21,14.50
2011,08,14,02,22,14.50
2011,08,14,02,23,14.50
2011,08,14,02,24,14.50
2011,08,14,02,25,14.50
2011,08,14,02,26,14.50
2011,08,14,02,27,14.40
2011,08,14,02,28,14.40
2011,08,14,02,29,14.40
2011,08,14,02,30,14.40
2011,08,14,02,31,14.40
2011,08,14,02,32,14.40
2011,08,14,02,33,14.40
2011,08,14,02,34,14.40
2011,08,14,02,35,14.40
2011,08,14,02,36,14.40
2011,08,14,02,37,14.40
2011,08,14,02,38,14.30
2011,08,14,02,39,14.30
2011,08,14,02,40,14.30
2011,08,14,02,41,14.30
2011,08,14,02,42,14.30
2011,08,14,02,43,14.30
2011,08,14,02,44,14.30
2011,08,14,02,45,14.30
2011,08,14,02,46,14.30
2011,08,14,02,47,14.30
2011,08,14,02,48,14.30
2011,08,14,02,49,14.20
2011,08,14,02,50,14.20
2011,08,14,02,51,14.20
2011,08,14,02,52,14.20
2011,08,14,02,53,14.20
2011,08,14,02,54,14.20
2011,08,14,02,55,14.10
2011,08,14,02,56,14.10
2011,08,14,02,57,14.10
2011,08,14,02,58,14.10
2011,08,14,02,59,14.10
2011,08,14,03,00,14.00
2011,08,14,03,01,14.00
2011,08,14,03,02,14.00
2011,08,14,03,03,13.90
2011,08,14,03,04,13.90
2011,08,14,03,05,13.90
2011,08,14,03,06,13.90
2011,08,14,03,07,13.90
2011,08,14,03,08,13.90
2011,08,14,03,09,13.90
2011,08,14,03,10,13.90
2011,08,14,03,11,13.80
2011,08,14,03,12,13.80
2011,08,14,03,13,13.80
2011,08,14,03,14,13.80
2011,08,14,03,15,13.80
2011,08,14,03,16,13.80
2011,08,14,03,17,13.80
2011,08,14,03,18,13.80
2011,08,14,03,19,13.80
2011,08,14,03,20,13.80
2011,08,14,03,21,13.80
2011,08,14,03,22,13.70
2011,08,14,03,23,13.70
2011,08,14,03,24,13.70
2011,08,14,03,25,13.70
2011,08,14,03,26,13.70
2011,08,14,03,27,13.70
2011,08,14,03,28,13.70
2011,08,14,03,29,13.70
2011,08,14,03,30,13.70
2011,08,14,03,31,13.70
2011,08,14,03,32,13.70
2011,08,14,03,33,13.70
2011,08,14,03,34,13.70
2011,08,14,03,35,13.70
2011,08,14,03,36,13.70
2011,08,14,03,37,13.70
2011,08,14,03,38,13.70
2011,08,14,03,39,13.70
2011,08,14,03,40,13.70
2011,08,14,03,41,13.70
2011,08,14,03,42,13.70
2011,08,14,03,43,13.70
2011,08,14,03,44,13.70
2011,08,14,03,45,13.70
2011,08,14,03,46,13.70
2011,08,14,03,47,13.70
2011,08,14,03,48,13.70
2011,08,14,03,49,13.70
2011,08,14,03,50,13.70
2011,08,14,03,51,13.70
2011,08,14,03,52,13.70
2011,08,14,03,53,13.70
2011,08,14,03,54,13.70
2011,08,14,03,55,13.70
2011,08,14,03,56,13.70
2011,08,14,03,57,13.70
2011,08,14,03,58,13.70
2011,08,14,03,59,13.70
2011,08,14,04,00,13.70
2011,08,14,04,01,13.70
2011,08,14,04,02,13.70
2011,08,14,04,03,13.60
2011,08,14,04,04,13.60
2011,08,14,04,05,13.60
2011,08,14,04,06,13.60
2011,08,14,04,07,13.60
2011,08,14,04,08,13.50
2011,08,14,04,09,13.50
2011,08,14,04,10,13.50
2011,08,14,04,11,13.50
2011,08,14,04,12,13.50
2011,08,14,04,13,13.50
2011,08,14,04,14,13.60
2011,08,14,04,15,13.60
2011,08,14,04,16,13.60
2011,08,14,04,17,13.60
2011,08,14,04,18,13.60
2011,08,14,04,19,13.60
2011,08,14,04,20,13.60
2011,08,14,04,21,13.60
2011,08,14,04,22,13.60
2011,08,14,04,23,13.60
2011,08,14,04,24,13.60
2011,08,14,04,25,13.60
2011,08,14,04,26,13.60
2011,08,14,04,27,13.60
2011,08,14,04,28,13.70
2011,08,14,04,29,13.70
2011,08,14,04,30,13.70
2011,08,14,04,31,13.70
2011,08,14,04,32,13.70
2011,08,14,04,33,13.70
2011,08,14,04,34,13.70
2011,08,14,04,35,13.70
2011,08,14,04,36,13.70
2011,08,14,04,37,13.70
2011,08,14,04,38,13.70
2011,08,14,04,39,13.70
2011,08,14,04,40,13.70
2011,08,14,04,41,13.70
2011,08,14,04,42,13.70
2011,08,14,04,43,13.70
2011,08,14,04,44,13.70
2011,08,14,04,45,13.70
2011,08,14,04,46,13.80
2011,08,14,04,47,13.70
2011,08,14,04,48,13.70
2011,08,14,04,49,13.70
2011,08,14,04,50,13.70
2011,08,14,04,51,13.70
2011,08,14,04,52,13.70
2011,08,14,04,53,13.70
2011,08,14,04,54,13.70
2011,08,14,04,55,13.70
2011,08,14,04,56,13.70
2011,08,14,04,57,13.70
2011,08,14,04,58,13.70
2011,08,14,04,59,13.70
2011,08,14,05,00,13.70
2011,08,14,05,01,13.70
2011,08,14,05,02,13.70
2011,08,14,05,03,13.70
2011,08,14,05,04,13.60
2011,08,14,05,05,13.60
2011,08,14,05,06,13.60
2011,08,14,05,07,13.60
2011,08,14,05,08,13.60
2011,08,14,05,09,13.60
2011,08,14,05,10,13.50
2011,08,14,05,11,13.50
2011,08,14,05,12,13.50
2011,08,14,05,13,13.50
2011,08,14,05,14,13.50
2011,08,14,05,15,13.50
2011,08,14,05,16,13.50
2011,08,14,05,17,13.50
2011,08,14,05,18,13.50
2011,08,14,05,19,13.50
2011,08,14,05,20,13.50
2011,08,14,05,21,13.50
2011,08,14,05,22,13.50
2011,08,14,05,23,13.50
2011,08,14,05,24,13.40
2011,08,14,05,25,13.40
2011,08,14,05,26,13.40
2011,08,14,05,27,13.40
2011,08,14,05,28,13.40
2011,08,14,05,29,13.40
2011,08,14,05,30,13.40
2011,08,14,05,31,13.40
2011,08,14,05,32,13.40
2011,08,14,05,33,13.40
2011,08,14,05,34,13.40
2011,08,14,05,35,13.40
2011,08,14,05,36,13.40
2011,08,14,05,37,13.40
2011,08,14,05,38,13.40
2011,08,14,05,39,13.40
2011,08,14,05,40,13.40
2011,08,14,05,41,13.40
2011,08,14,05,42,13.40
2011,08,14,05,43,13.40
2011,08,14,05,44,13.40
2011,08,14,05,45,13.30
2011,08,14,05,46,13.30
2011,08,14,05,47,13.30
2011,08,14,05,48,13.30
2011,08,14,05,49,13.30
2011,08,14,05,50,13.30
2011,08,14,05,51,13.30
2011,08,14,05,52,13.30
2011,08,14,05,53,13.30
2011,08,14,05,54,13.30
2011,08,14,05,55,13.30
2011,08,14,05,56,13.30
2011,08,14,05,57,13.30
2011,08,14,05,58,13.30
2011,08,14,05,59,13.30
2011,08,14,06,00,13.30
2011,08,14,06,01,13.30
2011,08,14,06,02,13.30
2011,08,14,06,03,13.30
2011,08,14,06,04,13.30
2011,08,14,06,05,13.30
2011,08,14,06,06,13.30
2011,08,14,06,07,13.30
2011,08,14,06,08,13.20
2011,08,14,06,09,13.20
2011,08,14,06,10,13.20
2011,08,14,06,11,13.20
2011,08,14,06,12,13.20
2011,08,14,06,13,13.20
2011,08,14,06,14,13.20
2011,08,14,06,15,13.20
2011,08,14,06,16,13.20
2011,08,14,06,17,13.20
2011,08,14,06,18,13.20
2011,08,14,06,19,13.10
2011,08,14,06,20,13.10
2011,08,14,06,21,13.10
2011,08,14,06,22,13.10
2011,08,14,06,23,13.10
2011,08,14,06,24,13.10
2011,08,14,06,25,13.10
2011,08,14,06,26,13.10
2011,08,14,06,27,13.00
2011,08,14,06,28,13.00
2011,08,14,06,29,13.00
2011,08,14,06,30,13.00
2011,08,14,06,31,13.00
2011,08,14,06,32,12.90
2011,08,14,06,33,12.90
2011,08,14,06,34,12.90
2011,08,14,06,35,12.90
2011,08,14,06,36,12.90
2011,08,14,06,37,12.90
2011,08,14,06,38,12.90
2011,08,14,06,39,12.90
2011,08,14,06,40,12.90
2011,08,14,06,41,12.90
2011,08,14,06,42,12.90
2011,08,14,06,43,12.90
2011,08,14,06,44,12.90
2011,08,14,06,45,12.90
2011,08,14,06,46,12.90
2011,08,14,06,47,12.90
2011,08,14,06,48,12.90
2011,08,14,06,49,13.00
2011,08,14,06,50,13.00
2011,08,14,06,51,13.00
2011,08,14,06,52,13.00
2011,08,14,06,53,13.00
2011,08,14,06,54,12.90
2011,08,14,06,55,12.90
2011,08,14,06,56,12.90
2011,08,14,06,57,12.90
2011,08,14,06,58,12.90
2011,08,14,06,59,12.90
2011,08,14,07,00,12.90
2011,08,14,07,01,12.90
2011,08,14,07,02,12.90
2011,08,14,07,03,12.90
2011,08,14,07,04,13.00
2011,08,14,07,05,13.00
2011,08,14,07,06,13.00
2011,08,14,07,07,13.00
2011,08,14,07,08,13.00
2011,08,14,07,09,13.00
2011,08,14,07,10,13.00
2011,08,14,07,11,13.00
2011,08,14,07,12,13.10
2011,08,14,07,13,13.10
2011,08,14,07,14,13.10
2011,08,14,07,15,13.10
2011,08,14,07,16,13.10
2011,08,14,07,17,13.10
2011,08,14,07,18,13.20
2011,08,14,07,19,13.20
2011,08,14,07,20,13.20
2011,08,14,07,21,13.20
2011,08,14,07,22,13.20
2011,08,14,07,23,13.30
2011,08,14,07,24,13.30
2011,08,14,07,25,13.30
2011,08,14,07,26,13.30
2011,08,14,07,27,13.30
2011,08,14,07,28,13.30
2011,08,14,07,29,13.30
2011,08,14,07,30,13.30
2011,08,14,07,31,13.30
2011,08,14,07,32,13.30
2011,08,14,07,33,13.30
2011,08,14,07,34,13.30
2011,08,14,07,35,13.30
2011,08,14,07,36,13.20
2011,08,14,07,37,13.20
2011,08,14,07,38,13.20
2011,08,14,07,39,13.20
2011,08,14,07,40,13.20
2011,08,14,07,41,13.20
2011,08,14,07,42,13.20
2011,08,14,07,43,13.20
2011,08,14,07,44,13.20
2011,08,14,07,45,13.20
2011,08,14,07,46,13.20
2011,08,14,07,47,13.30
2011,08,14,07,48,13.30
2011,08,14,07,49,13.30
2011,08,14,07,50,13.30
2011,08,14,07,51,13.30
2011,08,14,07,52,13.40
2011,08,14,07,53,13.40
2011,08,14,07,54,13.40
2011,08,14,07,55,13.50
2011,08,14,07,56,13.50
2011,08,14,07,57,13.50
2011,08,14,07,58,13.60
2011,08,14,07,59,13.60
2011,08,14,08,00,13.60
2011,08,14,08,01,13.70
2011,08,14,08,02,13.70
2011,08,14,08,03,13.70
2011,08,14,08,04,13.70
2011,08,14,08,05,13.70
2011,08,14,08,06,13.70
2011,08,14,08,07,13.80
2011,08,14,08,08,13.80
2011,08,14,08,09,13.80
2011,08,14,08,10,13.80
2011,08,14,08,11,13.80
2011,08,14,08,12,13.80
2011,08,14,08,13,13.80
2011,08,14,08,14,13.80
2011,08,14,08,15,13.80
2011,08,14,08,16,13.80
2011,08,14,08,17,13.90
2011,08,14,08,18,13.90
2011,08,14,08,19,13.90
2011,08,14,08,20,14.00
2011,08,14,08,21,14.00
2011,08,14,08,22,14.10
2011,08,14,08,23,14.10
2011,08,14,08,24,14.10
2011,08,14,08,25,14.20
2011,08,14,08,26,14.20
2011,08,14,08,27,14.20
2011,08,14,08,28,14.30
2011,08,14,08,29,14.30
2011,08,14,08,30,14.30
2011,08,14,08,31,14.30
2011,08,14,08,32,14.30
2011,08,14,08,33,14.30
2011,08,14,08,34,14.30
2011,08,14,08,35,14.40
2011,08,14,08,36,14.40
2011,08,14,08,37,14.50
2011,08,14,08,38,14.60
2011,08,14,08,39,14.70
2011,08,14,08,40,14.70
2011,08,14,08,41,14.80
2011,08,14,08,42,14.90
2011,08,14,08,43,15.00
2011,08,14,08,44,15.00
2011,08,14,08,45,15.10
2011,08,14,08,46,15.20
2011,08,14,08,47,15.30
2011,08,14,08,48,15.40
2011,08,14,08,49,15.50
2011,08,14,08,50,15.60
2011,08,14,08,51,15.60
2011,08,14,08,52,15.70
2011,08,14,08,53,15.70
2011,08,14,08,54,15.80
2011,08,14,08,55,15.80
2011,08,14,08,56,15.90
2011,08,14,08,57,15.90
2011,08,14,08,58,16.00
2011,08,14,08,59,16.00
2011,08,14,09,00,16.10
2011,08,14,09,01,16.10
2011,08,14,09,02,16.10
2011,08,14,09,03,16.20
2011,08,14,09,04,16.20
2011,08,14,09,05,16.30
2011,08,14,09,06,16.30
2011,08,14,09,07,16.40
2011,08,14,09,08,16.50
2011,08,14,09,09,16.50
2011,08,14,09,10,16.40
2011,08,14,09,11,16.30
2011,08,14,09,12,16.30
2011,08,14,09,13,16.20
2011,08,14,09,14,16.20
2011,08,14,09,15,16.20
2011,08,14,09,16,16.20
2011,08,14,09,17,16.20
2011,08,14,09,18,16.10
2011,08,14,09,19,16.10
2011,08,14,09,20,16.10
2011,08,14,09,21,16.20
2011,08,14,09,22,16.30
2011,08,14,09,23,16.30
2011,08,14,09,24,16.40
2011,08,14,09,25,16.30
2011,08,14,09,26,16.20
2011,08,14,09,27,16.20
2011,08,14,09,28,16.20
2011,08,14,09,29,16.20
2011,08,14,09,30,16.20
2011,08,14,09,31,16.20
2011,08,14,09,32,16.20
2011,08,14,09,33,16.30
2011,08,14,09,34,16.40
2011,08,14,09,35,16.50
2011,08,14,09,36,16.60
2011,08,14,09,37,16.70
2011,08,14,09,38,16.80
2011,08,14,09,39,16.90
2011,08,14,09,40,17.00
2011,08,14,09,41,17.20
2011,08,14,09,42,17.20
2011,08,14,09,43,17.20
2011,08,14,09,44,17.20
2011,08,14,09,45,17.20
2011,08,14,09,46,17.20
2011,08,14,09,47,17.20
2011,08,14,09,48,17.20
2011,08,14,09,49,17.20
2011,08,14,09,50,17.30
2011,08,14,09,51,17.30
2011,08,14,09,52,17.40
2011,08,14,09,53,17.40
2011,08,14,09,54,17.40
2011,08,14,09,55,17.40
2011,08,14,09,56,17.30
2011,08,14,09,57,17.20
2011,08,14,09,58,17.10
2011,08,14,09,59,17.10
2011,08,14,10,00,17.10
2011,08,14,10,01,17.20
2011,08,14,10,02,17.30
2011,08,14,10,03,17.30
2011,08,14,10,04,17.10
2011,08,14,10,05,17.10
2011,08,14,10,06,17.00
2011,08,14,10,07,17.00
2011,08,14,10,08,17.00
2011,08,14,10,09,17.10
2011,08,14,10,10,17.20
2011,08,14,10,11,17.20
2011,08,14,10,12,17.10
2011,08,14,10,13,17.10
2011,08,14,10,14,17.00
2011,08,14,10,15,17.00
2011,08,14,10,16,17.00
2011,08,14,10,17,16.90
2011,08,14,10,18,16.90
2011,08,14,10,19,16.90
2011,08,14,10,20,16.90
2011,08,14,10,21,16.90
2011,08,14,10,22,16.80
2011,08,14,10,23,16.80
2011,08,14,10,24,16.80
2011,08,14,10,25,16.80
2011,08,14,10,26,16.90
2011,08,14,10,27,17.10
2011,08,14,10,28,17.20
2011,08,14,10,29,17.30
2011,08,14,10,30,17.30
2011,08,14,10,31,17.20
2011,08,14,10,32,17.20
2011,08,14,10,33,17.30
2011,08,14,10,34,17.40
2011,08,14,10,35,17.30
2011,08,14,10,36,17.30
2011,08,14,10,37,17.20
2011,08,14,10,38,17.10
2011,08,14,10,39,17.10
2011,08,14,10,40,17.00
2011,08,14,10,41,16.90
2011,08,14,10,42,16.80
2011,08,14,10,43,16.80
2011,08,14,10,44,16.80
2011,08,14,10,45,16.80
2011,08,14,10,46,16.70
2011,08,14,10,47,16.60
2011,08,14,10,48,16.50
2011,08,14,10,49,16.50
2011,08,14,10,50,16.50
2011,08,14,10,51,16.50
2011,08,14,10,52,16.40
2011,08,14,10,53,16.40
2011,08,14,10,54,16.50
2011,08,14,10,55,16.50
2011,08,14,10,56,16.50
2011,08,14,10,57,16.50
2011,08,14,10,58,16.40
2011,08,14,10,59,16.40
2011,08,14,11,00,16.40
2011,08,14,11,01,16.40
2011,08,14,11,02,16.40
2011,08,14,11,03,16.40
2011,08,14,11,04,16.40
2011,08,14,11,05,16.50
2011,08,14,11,06,16.60
2011,08,14,11,07,16.60
2011,08,14,11,08,16.60
2011,08,14,11,09,16.60
2011,08,14,11,10,16.60
2011,08,14,11,11,16.50
2011,08,14,11,12,16.40
2011,08,14,11,13,16.30
2011,08,14,11,14,16.30
2011,08,14,11,15,16.30
2011,08,14,11,16,16.40
2011,08,14,11,17,16.40
2011,08,14,11,18,16.40
2011,08,14,11,19,16.40
2011,08,14,11,20,16.50
2011,08,14,11,21,16.60
2011,08,14,11,22,16.60
2011,08,14,11,23,16.70
2011,08,14,11,24,16.80
2011,08,14,11,25,16.90
2011,08,14,11,26,16.90
2011,08,14,11,27,17.00
2011,08,14,11,28,17.10
2011,08,14,11,29,17.10
2011,08,14,11,30,17.10
2011,08,14,11,31,17.10
2011,08,14,11,32,17.20
2011,08,14,11,33,17.20
2011,08,14,11,34,17.20
2011,08,14,11,35,17.20
2011,08,14,11,36,17.10
2011,08,14,11,37,17.00
2011,08,14,11,38,17.00
2011,08,14,11,39,16.90
2011,08,14,11,40,16.90
2011,08,14,11,41,17.00
2011,08,14,11,42,17.00
2011,08,14,11,43,17.00
2011,08,14,11,44,17.10
2011,08,14,11,45,17.00
2011,08,14,11,46,16.90
2011,08,14,11,47,16.90
2011,08,14,11,48,17.00
2011,08,14,11,49,17.20
2011,08,14,11,50,17.20
2011,08,14,11,51,17.20
2011,08,14,11,52,17.30
2011,08,14,11,53,17.40
2011,08,14,11,54,17.40
2011,08,14,11,55,17.50
2011,08,14,11,56,17.70
2011,08,14,11,57,17.80
2011,08,14,11,58,17.80
2011,08,14,11,59,17.90
2011,08,14,12,00,17.90
2011,08,14,12,01,18.00
2011,08,14,12,02,18.20
2011,08,14,12,03,18.10
2011,08,14,12,04,18.00
2011,08,14,12,05,18.00
2011,08,14,12,06,18.10
2011,08,14,12,07,18.10
2011,08,14,12,08,18.10
2011,08,14,12,09,18.00
2011,08,14,12,10,17.80
2011,08,14,12,11,17.60
2011,08,14,12,12,17.60
2011,08,14,12,13,17.60
2011,08,14,12,14,17.60
2011,08,14,12,15,17.60
2011,08,14,12,16,17.60
2011,08,14,12,17,17.60
2011,08,14,12,18,17.60
2011,08,14,12,19,17.60
2011,08,14,12,20,17.60
2011,08,14,12,21,17.70
2011,08,14,12,22,17.90
2011,08,14,12,23,17.90
2011,08,14,12,24,17.90
2011,08,14,12,25,17.90
2011,08,14,12,26,17.80
2011,08,14,12,27,17.80
2011,08,14,12,28,17.90
2011,08,14,12,29,17.90
2011,08,14,12,30,17.90
2011,08,14,12,31,17.90
2011,08,14,12,32,17.90
2011,08,14,12,33,17.80
2011,08,14,12,34,17.90
2011,08,14,12,35,18.10
2011,08,14,12,36,18.20
2011,08,14,12,37,18.40
2011,08,14,12,38,18.60
2011,08,14,12,39,18.70
2011,08,14,12,40,18.70
2011,08,14,12,41,18.70
2011,08,14,12,42,18.60
2011,08,14,12,43,18.50
2011,08,14,12,44,18.30
2011,08,14,12,45,18.30
2011,08,14,12,46,18.40
2011,08,14,12,47,18.50
2011,08,14,12,48,18.50
2011,08,14,12,49,18.60
2011,08,14,12,50,18.70
2011,08,14,12,51,18.70
2011,08,14,12,52,18.70
2011,08,14,12,53,18.80
2011,08,14,12,54,18.90
2011,08,14,12,55,18.90
2011,08,14,12,56,18.90
2011,08,14,12,57,18.70
2011,08,14,12,58,18.70
2011,08,14,12,59,18.60
2011,08,14,13,00,18.60
2011,08,14,13,01,18.60
2011,08,14,13,02,18.60
2011,08,14,13,03,18.50
2011,08,14,13,04,18.40
2011,08,14,13,05,18.30
2011,08,14,13,06,18.30
2011,08,14,13,07,18.30
2011,08,14,13,08,18.30
2011,08,14,13,09,18.20
2011,08,14,13,10,18.10
2011,08,14,13,11,18.00
2011,08,14,13,12,17.90
2011,08,14,13,13,17.90
2011,08,14,13,14,17.80
2011,08,14,13,15,17.80
2011,08,14,13,16,17.90
2011,08,14,13,17,18.00
2011,08,14,13,18,18.10
2011,08,14,13,19,18.30
2011,08,14,13,20,18.50
2011,08,14,13,21,18.60
2011,08,14,13,22,18.60
2011,08,14,13,23,18.60
2011,08,14,13,24,18.40
2011,08,14,13,25,18.30
2011,08,14,13,26,18.30
2011,08,14,13,27,18.20
2011,08,14,13,28,18.20
2011,08,14,13,29,18.20
2011,08,14,13,30,18.20
2011,08,14,13,31,18.20
2011,08,14,13,32,18.20
2011,08,14,13,33,18.20
2011,08,14,13,34,18.20
2011,08,14,13,35,18.10
2011,08,14,13,36,18.10
2011,08,14,13,37,18.00
2011,08,14,13,38,18.00
2011,08,14,13,39,18.00
2011,08,14,13,40,18.00
2011,08,14,13,41,18.00
2011,08,14,13,42,18.00
2011,08,14,13,43,18.00
2011,08,14,13,44,18.00
2011,08,14,13,45,18.00
2011,08,14,13,46,18.10
2011,08,14,13,47,18.10
2011,08,14,13,48,18.10
2011,08,14,13,49,18.10
2011,08,14,13,50,18.00
2011,08,14,13,51,17.90
2011,08,14,13,52,17.80
2011,08,14,13,53,17.80
2011,08,14,13,54,17.80
2011,08,14,13,55,17.80
2011,08,14,13,56,17.80
2011,08,14,13,57,17.80
2011,08,14,13,58,17.80
2011,08,14,13,59,17.80
2011,08,14,14,00,17.90
2011,08,14,14,01,17.90
2011,08,14,14,02,17.80
2011,08,14,14,03,17.80
2011,08,14,14,04,17.70
2011,08,14,14,05,17.70
2011,08,14,14,06,17.70
2011,08,14,14,07,17.70
2011,08,14,14,08,17.70
2011,08,14,14,09,17.80
2011,08,14,14,10,17.80
2011,08,14,14,11,17.80
2011,08,14,14,12,17.90
2011,08,14,14,13,17.90
2011,08,14,14,14,17.90
2011,08,14,14,15,17.90
2011,08,14,14,16,17.90
2011,08,14,14,17,17.90
2011,08,14,14,18,17.90
2011,08,14,14,19,17.90
2011,08,14,14,20,17.90
2011,08,14,14,21,18.00
2011,08,14,14,22,18.00
2011,08,14,14,23,18.00
2011,08,14,14,24,18.00
2011,08,14,14,25,18.00
2011,08,14,14,26,18.00
2011,08,14,14,27,17.90
2011,08,14,14,28,17.90
2011,08,14,14,29,17.90
2011,08,14,14,30,17.80
2011,08,14,14,31,17.80
2011,08,14,14,32,17.70
2011,08,14,14,33,17.70
2011,08,14,14,34,17.70
2011,08,14,14,35,17.60
2011,08,14,14,36,17.60
2011,08,14,14,37,17.60
2011,08,14,14,38,17.60
2011,08,14,14,39,17.60
2011,08,14,14,40,17.60
2011,08,14,14,41,17.60
2011,08,14,14,42,17.70
2011,08,14,14,43,17.70
2011,08,14,14,44,17.70
2011,08,14,14,45,17.70
2011,08,14,14,46,17.70
2011,08,14,14,47,17.70
2011,08,14,14,48,17.60
2011,08,14,14,49,17.70
2011,08,14,14,50,17.70
2011,08,14,14,51,17.70
2011,08,14,14,52,17.70
2011,08,14,14,53,17.70
2011,08,14,14,54,17.60
2011,08,14,14,55,17.60
2011,08,14,14,56,17.70
2011,08,14,14,57,17.70
2011,08,14,14,58,17.70
2011,08,14,14,59,17.70
2011,08,14,15,00,17.70
2011,08,14,15,01,17.70
2011,08,14,15,02,17.70
2011,08,14,15,03,17.70
2011,08,14,15,04,17.70
2011,08,14,15,05,17.70
2011,08,14,15,06,17.70
2011,08,14,15,07,17.70
2011,08,14,15,08,17.70
2011,08,14,15,09,17.70
2011,08,14,15,10,17.70
2011,08,14,15,11,17.70
2011,08,14,15,12,17.70
2011,08,14,15,13,17.70
2011,08,14,15,14,17.70
2011,08,14,15,15,17.60
2011,08,14,15,16,17.60
2011,08,14,15,17,17.60
2011,08,14,15,18,17.60
2011,08,14,15,19,17.60
2011,08,14,15,20,17.60
2011,08,14,15,21,17.60
2011,08,14,15,22,17.60
2011,08,14,15,23,17.70
2011,08,14,15,24,17.70
2011,08,14,15,25,17.70
2011,08,14,15,26,17.70
2011,08,14,15,27,17.70
2011,08,14,15,28,17.70
2011,08,14,15,29,17.70
2011,08,14,15,30,17.80
2011,08,14,15,31,17.80
2011,08,14,15,32,17.80
2011,08,14,15,33,17.80
2011,08,14,15,34,17.80
2011,08,14,15,35,17.90
2011,08,14,15,36,17.90
2011,08,14,15,37,17.90
2011,08,14,15,38,17.90
2011,08,14,15,39,17.90
2011,08,14,15,40,17.90
2011,08,14,15,41,17.90
2011,08,14,15,42,17.80
2011,08,14,15,43,17.80
2011,08,14,15,44,17.80
2011,08,14,15,45,17.80
2011,08,14,15,46,17.80
2011,08,14,15,47,17.90
2011,08,14,15,48,17.90
2011,08,14,15,49,17.90
2011,08,14,15,50,18.00
2011,08,14,15,51,18.10
2011,08,14,15,52,18.10
2011,08,14,15,53,18.10
2011,08,14,15,54,18.20
2011,08,14,15,55,18.10
2011,08,14,15,56,18.10
2011,08,14,15,57,18.10
2011,08,14,15,58,18.10
2011,08,14,15,59,18.00
2011,08,14,16,00,18.00
2011,08,14,16,01,18.00
2011,08,14,16,02,18.10
2011,08,14,16,03,18.10
2011,08,14,16,04,18.10
2011,08,14,16,05,18.10
2011,08,14,16,06,18.00
2011,08,14,16,07,18.00
2011,08,14,16,08,17.90
2011,08,14,16,09,17.80
2011,08,14,16,10,17.70
2011,08,14,16,11,17.70
2011,08,14,16,12,17.60
2011,08,14,16,13,17.60
2011,08,14,16,14,17.60
2011,08,14,16,15,17.50
2011,08,14,16,16,17.50
2011,08,14,16,17,17.50
2011,08,14,16,18,17.50
2011,08,14,16,19,17.60
2011,08,14,16,20,17.60
2011,08,14,16,21,17.70
2011,08,14,16,22,17.70
2011,08,14,16,23,17.70
2011,08,14,16,24,17.80
2011,08,14,16,25,17.80
2011,08,14,16,26,17.90
2011,08,14,16,27,17.90
2011,08,14,16,28,18.00
2011,08,14,16,29,18.00
2011,08,14,16,30,18.10
2011,08,14,16,31,18.10
2011,08,14,16,32,18.10
2011,08,14,16,33,18.10
2011,08,14,16,34,18.10
2011,08,14,16,35,18.10
2011,08,14,16,36,18.10
2011,08,14,16,37,18.10
2011,08,14,16,38,18.10
2011,08,14,16,39,18.10
2011,08,14,16,40,18.10
2011,08,14,16,41,18.10
2011,08,14,16,42,18.10
2011,08,14,16,43,18.20
2011,08,14,16,44,18.20
2011,08,14,16,45,18.20
2011,08,14,16,46,18.20
2011,08,14,16,47,18.20
2011,08,14,16,48,18.20
2011,08,14,16,49,18.20
2011,08,14,16,50,18.20
2011,08,14,16,51,18.20
2011,08,14,16,52,18.20
2011,08,14,16,53,18.30
2011,08,14,16,54,18.30
2011,08,14,16,55,18.30
2011,08,14,16,56,18.30
2011,08,14,16,57,18.30
2011,08,14,16,58,18.30
2011,08,14,16,59,18.30
2011,08,14,17,00,18.40
2011,08,14,17,01,18.40
2011,08,14,17,02,18.40
2011,08,14,17,03,18.40
2011,08,14,17,04,18.40
2011,08,14,17,05,18.40
2011,08,14,17,06,18.30
2011,08,14,17,07,18.30
2011,08,14,17,08,18.30
2011,08,14,17,09,18.30
2011,08,14,17,10,18.30
2011,08,14,17,11,18.30
2011,08,14,17,12,18.30
2011,08,14,17,13,18.30
2011,08,14,17,14,18.30
2011,08,14,17,15,18.30
2011,08,14,17,16,18.30
2011,08,14,17,17,18.30
2011,08,14,17,18,18.30
2011,08,14,17,19,18.30